Theta_e
316 319 323 324 320 318 322 324 322 324 331 334 338 337 327 333 331 327 325 350 355 361 352 340 342 343 345 344 341 340 335 324 324 324 327 327 328 326 325 327 328 326 324 324 325 329 330 331 332
317 322 323 322 318 320 320 321 321 322 327 329 326 325 325 325 325 325 324 353 358 363 359 345 341 336 341 343 341 340 340 333 324 323 326 325 322 323 324 327 328 326 324 323 325 328 331 331 333
322 323 323 314 315 321 320 322 321 322 325 326 329 327 325 324 324 324 323 349 358 355 362 355 343 337 333 338 340 340 340 340 331 323 324 325 322 322 323 327 329 328 326 324 324 327 330 331 333
323 324 322 318 323 321 321 321 322 322 325 326 326 322 321 323 323 322 322 332 356 356 360 360 350 342 336 334 337 339 340 340 340 329 323 325 324 322 323 327 329 330 327 326 324 325 329 332 331
322 322 316 317 320 322 321 321 322 320 321 323 321 319 319 321 323 322 322 327 339 356 358 359 359 350 344 337 337 338 339 339 340 340 328 324 326 323 322 325 328 330 329 328 326 324 326 330 331
320 318 314 317 319 323 322 322 321 319 322 322 319 318 318 320 322 321 322 323 334 354 359 359 358 357 353 347 340 337 338 337 339 340 339 326 324 326 323 323 325 329 330 328 327 324 324 326 331
318 314 318 320 323 324 323 321 318 318 320 321 322 318 318 319 321 319 321 332 347 359 361 360 359 357 354 354 350 344 338 336 337 339 341 338 325 324 326 324 323 326 330 329 328 326 323 324 328
321 314 318 318 320 323 319 318 319 319 319 320 320 317 317 318 320 318 320 331 329 354 361 359 358 355 355 354 354 351 345 341 333 337 340 341 336 325 324 326 325 324 327 330 328 328 325 323 324
320 313 314 320 319 317 317 316 319 319 319 318 317 317 317 317 318 318 318 319 320 341 348 352 355 353 356 355 353 352 349 345 337 332 337 341 340 333 325 324 327 326 324 326 328 326 328 324 324
316 311 316 317 315 315 316 317 318 318 318 317 316 316 317 316 317 318 318 318 318 319 329 338 340 349 349 349 352 352 350 348 343 335 333 337 341 338 331 326 325 327 325 324 325 326 329 327 323
316 314 316 317 317 318 317 317 318 317 316 317 316 316 316 317 317 317 317 317 317 317 318 318 319 319 321 323 338 352 352 351 349 344 336 334 337 341 337 331 327 327 328 326 328 329 330 329 324
316 316 317 317 318 317 316 317 317 317 317 317 317 317 317 317 317 317 317 317 317 317 317 317 317 318 318 319 319 331 351 352 353 351 349 341 336 337 341 338 333 329 328 327 326 328 333 331 326
316 316 317 318 317 318 317 316 316 317 317 317 317 317 318 317 317 317 317 317 317 317 317 316 316 316 316 317 317 318 320 337 346 351 353 351 348 340 340 340 339 337 332 329 328 327 327 333 329
316 316 316 316 316 317 316 316 317 317 317 317 318 318 318 318 318 317 317 317 317 317 317 317 316 316 316 315 316 317 318 319 322 329 343 351 351 351 345 342 341 340 339 338 332 329 328 328 332
316 315 312 314 315 314 317 315 315 317 317 318 319 319 318 318 318 318 318 318 318 318 317 317 315 315 315 316 316 316 316 316 317 317 317 320 346 351 349 349 344 341 339 340 341 339 337 330 330
314 312 312 312 312 314 315 312 314 317 317 319 319 318 319 319 319 320 320 320 320 319 316 317 316 316 315 314 314 314 314 313 313 313 313 314 319 337 344 349 348 346 342 341 340 341 341 341 331
311 311 311 313 313 314 314 313 315 318 318 318 318 319 320 320 320 320 320 320 319 318 317 317 317 317 317 317 316 315 314 315 315 314 316 316 316 324 327 344 346 349 347 343 343 342 342 343 335
313 312 314 316 316 315 314 313 313 317 317 317 319 320 320 320 320 320 320 319 319 318 318 317 317 317 317 316 316 316 315 315 315 315 315 315 315 316 332 333 335 348 348 346 344 346 343 344 340
315 315 314 314 315 317 313 313 313 316 317 318 319 319 320 320 319 319 319 319 319 318 318 317 317 317 316 316 315 315 315 315 315 315 314 314 316 320 323 333 335 333 344 347 345 345 346 346 345
316 315 314 314 316 317 316 315 313 314 316 319 318 319 320 319 319 319 319 318 318 318 317 317 316 316 316 316 316 317 316 315 314 314 314 313 313 316 321 328 327 336 336 339 345 345 346 344 346
315 314 314 315 316 316 315 315 315 315 317 318 319 319 320 320 319 319 318 319 318 317 317 317 316 315 314 313 314 314 314 314 314 314 313 313 315 315 317 318 324 328 333 338 343 344 345 344 346
315 315 316 317 315 316 314 314 314 314 315 315 318 318 320 320 319 319 319 318 318 317 317 316 314 314 313 312 312 312 312 313 313 313 313 313 316 317 317 316 316 317 321 327 333 334 344 344 344
314 315 315 316 314 314 314 313 312 315 317 315 315 318 320 320 319 318 318 318 318 318 317 315 314 313 313 312 311 311 310 310 311 313 314 312 313 315 316 317 317 317 317 319 322 328 343 344 344
316 314 314 313 311 313 313 313 314 318 318 316 316 319 319 318 319 318 318 318 318 318 316 314 313 312 312 311 311 310 309 309 310 311 312 312 312 314 315 317 317 317 318 325 324 316 331 340 343
312 312 312 319 318 316 318 316 316 318 319 316 317 317 319 319 319 319 319 319 318 317 314 313 312 312 311 310 309 309 308 308 308 309 311 313 314 315 315 316 317 319 320 328 330 325 324 334 341
312 312 315 323 321 322 319 322 318 319 317 317 318 319 319 319 319 319 318 318 317 314 313 312 312 312 311 308 308 308 307 307 308 308 309 311 314 315 315 316 317 320 323 325 331 332 331 329 339
314 313 314 318 319 317 318 318 321 320 318 318 319 320 320 319 319 319 318 316 314 313 313 313 312 311 308 307 307 307 307 306 307 308 308 309 311 312 313 315 318 321 323 326 331 333 335 336 340
315 316 320 315 322 321 318 317 320 321 320 319 318 319 320 319 319 317 317 315 314 315 314 312 311 309 308 307 306 306 306 306 306 307 309 309 309 311 312 314 318 321 323 325 330 333 337 333 336
314 314 316 317 316 320 318 318 319 319 318 317 316 319 319 319 318 317 317 316 315 314 313 311 309 308 308 307 305 305 305 305 306 307 308 309 309 309 312 315 318 322 324 327 332 335 337 335 335
314 313 314 316 318 316 315 316 317 317 316 317 318 319 320 318 317 317 316 315 314 313 311 309 308 308 307 306 305 305 306 306 307 307 307 308 309 310 313 315 319 321 324 326 332 337 340 333 333
Wind_Speed
4 3 6 2 4 5 2 3 2 6 4 4 9 9 7 10 4 5 6 3 10 6 9 15 15 14 14 14 12 12 12 13 14 16 17 17 18 19 20 19 16 14 14 14 14 15 15 16 14
3 2 2 3 5 4 3 4 9 6 15 36 37 26 15 7 15 12 15 5 6 6 6 13 15 13 14 13 13 12 11 10 12 15 17 17 18 19 21 19 16 14 13 13 14 14 15 15 14
3 4 2 4 3 4 4 3 5 8 22 19 7 12 7 4 10 6 14 7 8 9 6 9 13 12 11 13 12 12 11 9 8 12 15 17 18 20 21 19 16 14 14 13 13 13 13 14 13
5 2 2 4 2 3 5 4 3 9 25 20 20 7 17 10 5 8 15 9 5 5 6 8 8 10 10 11 12 12 11 9 8 8 13 16 18 19 20 19 16 14 14 12 12 13 13 13 13
7 1 4 4 4 0 2 8 13 6 11 21 20 9 16 13 5 9 18 11 1 4 5 8 7 7 9 9 10 11 11 11 10 8 9 14 17 19 20 20 18 15 14 12 11 11 12 11 11
2 1 5 1 3 0 3 13 25 13 13 21 18 13 9 13 12 13 12 14 4 5 6 7 9 6 3 8 9 11 12 12 12 10 9 11 15 18 19 20 19 17 15 13 12 12 12 12 10
4 4 3 3 4 3 1 7 9 9 11 7 11 6 9 15 13 17 16 15 12 5 6 6 6 6 3 2 10 12 13 13 13 13 11 11 14 17 19 20 20 20 18 15 14 13 13 12 11
2 4 3 1 5 4 3 10 12 9 4 8 5 4 4 13 12 18 19 23 16 9 7 6 5 8 8 8 9 14 14 14 15 15 15 13 13 16 19 21 21 21 20 19 16 15 14 13 12
3 4 0 1 4 2 2 5 9 5 8 13 15 23 16 11 11 12 21 22 22 18 7 4 4 4 5 6 6 10 14 13 15 17 18 18 18 18 19 21 22 22 22 22 20 18 16 15 14
4 4 5 4 6 2 4 7 5 3 9 13 19 16 7 9 12 8 18 19 18 17 18 16 8 5 6 9 9 5 7 12 15 17 19 22 20 19 20 21 23 24 24 23 22 20 18 17 16
5 5 5 3 12 7 3 4 2 3 0 7 16 14 9 10 8 3 6 14 14 14 12 10 10 9 8 8 9 9 9 11 12 15 19 21 24 23 23 23 24 26 26 26 25 24 23 19 17
5 6 5 10 10 6 3 5 1 1 4 14 12 10 11 7 6 7 5 2 6 7 8 6 3 6 6 7 7 7 12 12 15 16 19 21 24 28 28 27 26 28 30 30 29 27 24 22 20
4 1 1 7 12 10 9 6 5 8 3 14 12 8 7 10 11 10 9 8 9 9 5 7 9 10 13 13 12 10 8 11 14 17 20 22 24 28 30 32 31 30 31 32 32 31 29 25 23
4 3 1 3 3 4 9 4 3 7 6 15 12 11 11 13 11 11 9 6 6 7 11 16 18 18 18 18 19 17 16 14 15 17 21 20 23 28 31 35 36 36 34 33 33 34 32 30 26
4 4 5 7 8 5 9 3 7 18 13 15 15 12 19 15 13 10 6 5 5 11 15 17 19 21 23 26 27 27 26 26 24 23 24 25 27 25 33 34 40 40 38 36 34 34 32 33 29
4 4 2 8 7 7 11 7 8 8 20 19 17 22 22 18 14 9 8 9 12 13 15 19 21 20 20 22 25 26 26 25 27 25 23 23 23 30 30 28 38 41 43 41 38 36 35 33 33
4 3 6 9 6 5 5 7 10 16 17 16 16 26 24 20 14 11 8 8 12 14 16 18 22 25 27 28 27 26 28 28 25 26 25 22 22 22 28 36 28 38 43 46 43 39 37 35 34
5 4 3 2 1 3 4 6 7 18 18 15 17 28 27 23 19 14 10 10 13 13 14 17 20 24 28 30 31 31 30 31 34 32 31 30 28 25 23 24 40 28 41 47 48 44 40 37 33
4 1 2 4 5 2 6 7 9 20 13 11 13 29 30 25 19 14 10 9 8 9 13 15 19 24 26 27 29 32 34 35 37 37 36 35 29 25 26 26 25 39 43 48 50 48 45 42 36
4 2 4 6 3 2 5 11 10 9 10 17 22 33 30 26 24 19 13 7 8 10 11 16 20 24 27 28 25 28 31 34 34 38 41 41 35 31 27 27 30 29 43 47 42 50 50 45 41
3 4 4 7 3 3 5 10 6 6 8 16 23 26 32 35 29 20 12 7 5 7 13 19 24 23 26 28 29 31 34 36 38 40 42 38 36 31 33 28 31 38 36 41 49 44 51 50 46
4 4 1 4 4 3 4 6 6 8 14 8 19 27 38 32 24 17 14 7 5 10 15 20 22 27 29 30 31 33 32 35 34 35 37 38 35 36 34 35 33 33 43 45 44 60 50 50 50
6 6 4 2 1 2 3 2 8 5 7 10 10 28 34 28 22 17 11 5 6 15 21 24 26 28 30 32 31 32 35 35 35 33 35 38 38 37 36 36 37 36 38 44 53 49 44 51 49
4 5 7 5 3 2 6 8 6 3 5 3 7 27 28 25 17 11 7 5 12 19 21 22 24 26 30 32 34 35 34 37 38 35 35 39 40 38 38 37 39 43 38 37 40 49 57 47 50
6 6 3 4 2 6 3 4 9 11 8 9 14 28 26 17 11 7 4 10 14 18 19 20 24 29 32 35 38 35 37 37 40 39 35 34 36 38 40 38 40 44 42 35 44 48 47 54 50
7 9 6 7 3 4 6 6 5 6 9 24 30 23 16 12 6 5 8 10 13 14 16 21 27 32 36 39 39 35 32 31 33 35 38 38 38 40 41 43 41 44 42 38 44 48 44 57 46
4 5 8 3 1 1 4 5 4 2 6 11 16 15 15 10 11 11 8 8 9 13 20 26 30 34 36 38 40 40 36 33 35 38 39 42 43 43 44 45 42 44 43 39 43 48 49 39 54
5 5 4 2 3 5 5 5 5 5 4 4 6 12 16 14 15 9 7 7 12 19 24 26 31 32 35 40 40 35 31 29 34 38 37 37 43 46 46 46 44 45 42 48 44 47 47 46 58
2 2 3 4 5 5 1 6 4 7 9 9 9 12 15 18 13 9 10 13 16 19 24 27 29 32 36 42 40 38 34 33 34 36 37 36 38 39 43 43 43 41 40 44 45 47 44 57 65
8 9 7 5 5 4 4 6 4 8 8 7 8 12 11 13 10 9 11 12 15 20 24 26 31 34 39 39 38 34 34 32 34 36 37 36 36 35 38 39 41 40 39 46 48 48 49 65 57
Wind_Direction
308 308 320 33 55 67 317 69 294 83 44 208 140 126 120 89 104 154 22 56 35 115 160 169 168 172 162 153 147 137 134 148 155 159 162 163 164 166 167 164 161 155 149 144 139 131 123 118 131
325 325 3 85 85 71 291 286 96 92 110 109 103 98 72 68 82 67 33 106 57 82 121 179 172 176 172 164 156 150 139 141 156 161 164 164 165 167 170 169 166 161 157 151 147 142 132 128 138
7 334 74 93 111 162 170 215 173 99 144 149 112 68 58 62 65 62 27 93 76 68 100 145 179 178 183 173 166 160 152 146 151 166 169 169 170 172 174 174 170 168 167 161 158 156 145 141 142
345 9 82 85 203 243 185 154 159 95 73 109 99 59 65 75 67 48 26 61 75 81 85 109 159 189 190 190 179 171 168 165 162 169 178 180 179 180 181 181 179 177 178 175 171 170 163 153 151
342 15 55 84 245 300 10 90 100 86 97 89 92 108 71 80 91 64 39 48 102 142 102 102 108 183 203 206 203 193 184 184 184 183 187 194 192 190 189 190 189 188 186 187 186 184 180 169 164
345 63 56 51 255 342 60 93 86 79 93 97 92 84 67 74 96 35 29 38 77 189 142 114 106 97 181 230 234 223 211 199 198 200 201 203 207 205 201 200 199 198 198 199 200 198 195 188 181
126 82 194 197 160 40 56 70 79 92 80 46 133 97 82 75 81 35 38 66 68 140 164 136 119 108 79 271 244 241 239 227 210 207 215 221 218 217 215 212 210 208 210 212 215 211 209 202 196
251 93 14 243 202 73 6 83 94 72 65 101 88 126 104 79 97 51 60 74 72 91 164 134 91 35 11 348 273 237 230 242 238 222 216 225 234 230 225 223 221 219 218 220 222 224 221 216 208
227 60 246 241 91 151 94 98 93 83 97 84 105 104 101 93 106 80 67 66 66 80 94 175 125 35 5 6 343 246 240 241 247 246 236 226 229 232 233 233 230 229 228 226 227 228 229 227 221
109 110 220 195 148 123 64 82 120 98 114 104 102 102 95 74 87 74 68 76 78 76 74 79 54 23 347 345 345 360 270 266 268 261 252 245 240 239 240 238 237 237 236 233 232 231 232 233 229
162 178 184 174 121 110 68 87 97 132 31 172 129 107 75 81 72 64 53 71 75 75 70 57 59 50 28 2 334 316 285 282 285 276 270 262 251 245 242 242 241 239 238 236 236 234 233 233 235
161 197 174 163 143 134 137 135 317 207 252 157 135 111 89 95 136 155 209 222 73 65 62 63 5 315 313 331 343 333 303 297 283 273 276 271 260 255 250 247 244 244 243 242 240 240 239 236 235
150 174 220 180 166 162 158 170 209 275 181 148 130 104 117 146 141 147 164 208 250 265 326 340 331 321 315 311 300 301 290 291 286 290 279 271 269 263 256 255 251 249 249 247 246 244 243 239 235
319 153 272 273 232 210 159 215 179 230 181 151 150 147 159 158 165 161 166 182 229 268 278 285 296 305 307 302 303 300 300 291 281 277 277 267 272 270 264 258 255 253 250 251 251 250 248 244 239
357 358 350 261 241 209 160 297 221 252 195 171 165 169 159 171 180 193 199 232 276 298 295 291 291 293 295 300 301 296 290 290 289 288 287 288 261 270 262 265 259 256 253 253 251 252 251 247 242
5 53 34 277 177 222 155 250 253 271 178 181 191 164 163 165 183 189 223 260 287 298 308 314 316 317 311 305 303 305 303 295 289 286 282 282 290 270 267 257 259 261 256 252 251 252 251 251 239
349 231 206 308 216 138 157 235 241 172 187 209 201 167 164 164 175 201 230 263 289 302 310 323 328 329 329 327 320 309 306 307 300 294 292 284 279 283 281 255 262 254 260 253 250 249 250 251 239
213 223 221 253 50 119 216 250 274 218 217 226 206 172 170 175 184 197 218 258 286 304 321 323 323 323 322 321 321 320 314 308 308 304 298 294 290 280 296 282 273 257 247 251 249 246 246 246 242
237 198 259 250 263 223 214 248 255 255 244 228 204 183 173 177 175 186 209 248 277 295 304 313 316 317 316 318 322 319 315 313 309 309 309 301 294 285 278 273 284 255 259 242 248 245 242 240 237
191 218 260 292 230 170 289 283 240 216 226 236 229 187 180 170 170 175 179 198 258 295 311 315 314 313 313 311 312 308 308 308 308 305 303 305 293 285 277 274 268 267 260 259 239 242 239 236 230
219 194 222 231 319 354 335 287 271 268 247 253 240 218 205 183 172 170 171 196 232 284 302 306 310 310 311 310 304 298 297 296 299 304 306 303 297 282 277 277 268 267 269 269 248 238 237 233 231
228 219 93 44 47 233 77 283 273 279 282 254 251 213 190 176 175 171 165 184 253 295 309 311 306 308 312 314 305 303 300 301 303 304 305 302 295 291 284 282 276 275 271 268 261 258 229 228 228
225 115 111 113 48 346 188 295 274 264 273 251 201 175 172 171 169 157 167 192 295 312 310 308 305 306 312 314 312 304 298 296 295 297 300 299 294 291 290 286 285 283 275 271 262 259 248 222 222
126 66 35 50 101 303 226 179 271 215 215 206 150 162 162 153 151 161 183 263 290 297 299 297 303 310 313 313 312 307 301 297 295 291 291 291 292 292 288 289 289 289 279 267 266 261 250 244 223
85 65 349 328 349 232 275 170 242 304 303 177 158 150 147 148 154 159 242 270 284 291 286 298 308 314 318 318 315 306 301 295 290 289 289 292 287 287 286 286 291 292 280 260 262 250 259 240 216
178 149 156 228 217 269 300 247 279 332 55 103 127 135 139 141 168 219 239 270 281 274 292 308 315 317 319 319 318 311 307 303 294 288 283 280 281 285 288 290 297 288 278 251 253 253 252 234 227
183 157 178 100 297 20 247 295 319 324 66 101 126 142 162 181 204 223 242 260 256 293 307 313 315 317 320 324 317 313 306 301 297 293 286 276 276 278 284 287 292 284 280 257 251 246 244 224 210
142 166 81 7 216 248 277 256 227 195 180 160 170 183 198 207 193 190 230 251 290 302 306 312 315 321 322 324 323 312 307 303 301 299 291 287 276 273 276 282 285 279 285 266 246 236 225 214 206
143 177 90 129 149 182 244 267 225 195 178 181 204 220 217 199 189 210 260 275 287 298 308 315 321 324 323 322 321 315 308 308 307 305 299 293 285 275 271 278 281 282 286 258 247 230 222 200 203
180 182 150 140 231 221 166 260 258 180 186 180 237 284 269 185 183 228 251 275 292 305 312 321 326 323 322 317 315 309 309 308 307 307 303 297 290 276 273 280 281 282 284 250 245 229 213 190 197